�N����,����,�~����,�C��,���x,�C��,����,���ϕ���,�ő�u�ԕ���,�ő厞����,���˗�,�I�_���x,�n�����x,�ő啗���N��,DTYPE
"21/02/08","00:10",0.0,4.5,85.7,1010.0,322.2,2.3,3.4,321.0,0.00,2.4,6.8,"00:02:48",1
"21/02/08","00:20",0.0,4.6,86.3,1009.7,313.6,1.6,2.1,325.6,0.00,2.6,6.8,"00:11:52",1
"21/02/08","00:30",0.0,4.3,87.1,1009.7,283.8,2.0,2.2,294.7,0.00,2.4,6.7,"00:27:44",1
"21/02/08","00:40",0.0,4.3,87.7,1009.7,294.3,2.6,3.7,315.5,0.00,2.5,6.7,"00:35:12",1
"21/02/08","00:50",0.0,4.2,88.2,1009.3,289.3,2.6,4.0,297.3,0.00,2.5,6.7,"00:46:16",1
"21/02/08","01:00",0.0,4.1,88.6,1009.7,299.2,2.6,3.2,290.1,0.00,2.4,6.5,"00:51:28",1
"21/02/08","01:10",0.0,3.8,89.0,1009.3,307.8,1.3,2.8,320.6,0.00,2.2,6.6,"01:02:24",1
"21/02/08","01:20",0.0,3.6,89.4,1009.3,317.2,1.2,2.2,310.1,0.00,2.1,6.3,"01:17:36",1
"21/02/08","01:30",0.0,3.2,89.8,1009.3,300.1,1.7,2.2,321.9,0.00,1.7,6.6,"01:24:16",1
"21/02/08","01:40",0.0,3.3,90.2,1009.0,296.2,2.1,3.3,322.9,0.00,1.9,6.4,"01:39:20",1
"21/02/08","01:50",0.0,3.5,90.6,1009.3,307.5,2.7,3.5,318.5,0.00,2.1,6.4,"01:41:44",1
"21/02/08","02:00",0.0,3.9,90.9,1009.0,312.6,3.0,4.5,316.4,0.00,2.6,6.4,"01:59:20",1
"21/02/08","02:10",0.0,4.1,90.9,1008.8,317.1,3.6,4.1,317.2,0.00,2.8,6.3,"02:02:40",1
"21/02/08","02:20",0.0,3.9,91.1,1009.0,322.3,2.6,4.2,323.0,0.00,2.6,6.5,"02:11:44",1
"21/02/08","02:30",0.0,3.8,91.3,1008.8,299.4,2.3,3.5,326.0,0.00,2.6,6.5,"02:23:28",1
"21/02/08","02:40",0.0,3.8,91.5,1008.6,294.0,2.5,3.3,304.4,0.00,2.6,6.3,"02:37:04",1
"21/02/08","02:50",0.0,3.7,91.6,1008.6,309.5,2.0,2.7,326.2,0.00,2.5,6.4,"02:45:52",1
"21/02/08","03:00",0.0,3.3,91.8,1008.8,264.8,1.0,2.4,315.8,0.00,2.1,6.2,"02:50:16",1
"21/02/08","03:10",0.0,3.5,92.0,1008.8,261.9,1.6,2.2,242.9,0.00,2.4,6.2,"03:01:44",1
"21/02/08","03:20",0.0,3.5,92.1,1008.3,280.4,1.7,2.0,269.4,0.00,2.4,6.1,"03:13:28",1
"21/02/08","03:30",0.0,3.0,92.2,1008.3,318.3,2.1,2.8,329.3,0.00,1.9,6.2,"03:25:04",1
"21/02/08","03:40",0.0,2.7,92.7,1007.8,311.8,2.0,2.9,323.7,0.00,1.7,6.2,"03:38:56",1
"21/02/08","03:50",0.0,2.8,93.0,1007.8,314.3,2.6,3.2,318.4,0.00,1.8,6.1,"03:44:48",1
"21/02/08","04:00",0.0,3.4,93.1,1007.8,287.3,2.1,4.0,316.6,0.00,2.4,6.1,"03:51:52",1
"21/02/08","04:10",0.0,4.6,93.0,1007.8,321.4,4.0,6.5,329.8,0.00,3.6,6.0,"04:05:04",1
"21/02/08","04:20",0.0,5.1,92.4,1008.1,322.7,4.6,5.8,323.0,0.00,4.0,5.9,"04:10:40",1
"21/02/08","04:30",0.0,5.2,92.0,1008.3,323.8,4.0,5.2,341.3,0.00,4.0,6.2,"04:24:56",1
"21/02/08","04:40",0.0,5.1,91.6,1008.3,300.6,2.7,4.8,330.0,0.00,3.9,6.3,"04:31:52",1
"21/02/08","04:50",0.0,4.6,91.4,1008.1,269.5,1.5,2.2,246.6,0.00,3.4,6.3,"04:42:24",1
"21/02/08","05:00",0.0,4.3,91.5,1008.3,257.4,1.2,1.8,263.3,0.00,3.1,6.3,"04:50:40",1
"21/02/08","05:10",0.0,4.0,91.5,1007.8,240.7,0.8,1.8,205.3,0.00,2.8,6.1,"05:00:56",1
"21/02/08","05:20",0.0,3.7,91.6,1008.3,315.8,1.8,2.4,334.3,0.00,2.5,6.0,"05:12:56",1
"21/02/08","05:30",0.0,3.8,91.8,1008.3,315.7,1.6,2.5,328.9,0.00,2.6,6.2,"05:24:32",1
"21/02/08","05:40",0.0,4.2,92.2,1008.3,333.7,1.7,5.8,335.1,0.00,3.1,6.0,"05:39:36",1
"21/02/08","05:50",0.0,5.0,91.4,1008.8,339.7,4.5,8.0,347.3,0.00,3.8,6.2,"05:42:00",1
"21/02/08","06:00",0.0,5.1,91.0,1008.6,334.7,3.4,5.7,344.5,0.00,3.8,6.2,"05:52:32",1
"21/02/08","06:10",0.0,5.1,90.6,1009.0,317.5,3.4,7.0,339.9,0.00,3.7,6.2,"06:03:12",1
"21/02/08","06:20",0.0,5.3,90.0,1009.0,324.5,3.6,6.2,332.9,0.00,3.8,6.4,"06:14:24",1
"21/02/08","06:30",0.0,5.3,89.4,1009.0,303.9,3.9,6.2,326.5,0.00,3.7,6.2,"06:24:48",1
"21/02/08","06:40",0.0,5.1,89.1,1009.0,305.4,3.2,4.3,314.1,0.00,3.5,6.4,"06:33:48",1
"21/02/08","06:50",0.0,4.9,88.9,1009.7,306.4,3.0,4.4,323.4,0.00,3.3,6.3,"06:42:38",1
"21/02/08","07:00",0.0,4.9,88.8,1009.7,310.4,4.0,5.5,307.1,0.00,3.3,6.4,"06:59:56",1
"21/02/08","07:10",0.0,4.8,88.7,1009.7,318.6,3.9,6.3,318.7,0.00,3.1,6.1,"07:00:20",1
"21/02/08","07:20",0.0,4.8,88.7,1009.7,292.7,3.0,4.0,294.7,0.00,3.1,6.5,"07:11:46",1
"21/02/08","07:30",0.0,4.8,88.7,1009.7,324.0,2.8,4.4,311.4,0.00,3.1,6.4,"07:23:38",1
"21/02/08","07:40",0.0,4.8,88.7,1009.7,314.1,2.7,4.0,328.3,0.00,3.1,6.3,"07:38:16",1
"21/02/08","07:50",0.0,4.8,88.5,1010.2,298.3,2.5,4.1,327.8,0.00,3.1,6.6,"07:47:54",1
"21/02/08","08:00",0.0,4.9,88.4,1010.2,306.1,2.3,3.7,318.1,0.02,3.2,6.3,"07:52:40",1
"21/02/08","08:10",0.0,5.0,88.2,1010.4,314.0,2.5,3.7,326.8,0.02,3.3,6.4,"08:02:32",1
"21/02/08","08:20",0.0,5.1,87.9,1010.2,313.6,2.3,4.0,322.0,0.03,3.3,6.4,"08:17:36",1
"21/02/08","08:30",0.0,5.0,87.4,1010.7,308.8,2.7,4.1,313.4,0.02,3.1,6.5,"08:20:48",1
"21/02/08","08:40",0.0,5.0,86.8,1011.2,303.9,2.7,4.5,311.8,0.02,3.0,6.6,"08:38:32",1
"21/02/08","08:50",0.0,5.1,86.1,1010.4,298.0,2.0,3.1,311.0,0.03,3.0,6.6,"08:44:40",1
"21/02/08","09:00",0.0,5.3,85.4,1010.9,289.1,2.3,4.4,324.4,0.04,3.1,6.4,"08:55:04",1
"21/02/08","09:10",0.0,5.4,84.7,1010.9,314.5,3.1,5.6,315.3,0.07,3.1,6.3,"09:08:44",1
"21/02/08","09:20",0.0,5.7,84.3,1010.9,315.4,2.8,4.4,319.8,0.11,3.3,6.6,"09:11:06",1
"21/02/08","09:30",0.0,6.0,83.6,1010.9,310.8,2.6,3.9,342.5,0.14,3.5,6.7,"09:24:16",1
"21/02/08","09:40",0.0,6.0,82.0,1011.6,310.4,3.0,4.9,332.2,0.11,3.2,6.7,"09:37:32",1
"21/02/08","09:50",0.0,6.4,80.8,1011.2,316.4,2.0,3.2,322.0,0.15,3.4,6.7,"09:40:48",1
"21/02/08","10:00",0.0,6.3,78.9,1011.2,300.4,2.7,4.0,308.6,0.17,3.0,6.8,"09:54:16",1
"21/02/08","10:10",0.0,7.4,77.9,1011.4,305.6,1.7,3.2,1.1,0.30,3.8,7.0,"10:06:52",1
"21/02/08","10:20",0.0,7.4,74.8,1011.9,308.4,3.0,5.7,316.9,0.25,3.3,7.3,"10:19:40",1
"21/02/08","10:30",0.0,7.2,74.4,1011.6,291.6,3.6,5.6,311.2,0.28,3.0,7.4,"10:20:10",1
"21/02/08","10:40",0.0,7.0,73.6,1011.9,303.2,3.1,5.0,260.9,0.15,2.7,7.4,"10:30:08",1
"21/02/08","10:50",0.0,6.9,74.1,1011.6,293.9,3.2,5.7,335.0,0.17,2.7,7.6,"10:42:00",1
"21/02/08","11:00",0.0,6.9,75.4,1011.6,291.3,3.5,6.6,328.8,0.25,2.9,7.8,"10:56:08",1
"21/02/08","11:10",0.0,6.7,76.4,1011.6,275.5,3.4,6.2,308.4,0.20,2.9,7.9,"11:05:18",1
"21/02/08","11:20",0.0,6.9,76.5,1011.4,283.8,3.2,5.2,302.0,0.26,3.1,8.0,"11:12:40",1
"21/02/08","11:30",0.0,7.0,76.8,1011.2,278.3,3.2,5.5,310.0,0.27,3.3,7.9,"11:26:04",1
"21/02/08","11:40",0.0,7.0,75.5,1011.2,279.7,4.0,5.9,268.6,0.24,3.0,8.1,"11:35:50",1
"21/02/08","11:50",0.0,6.9,74.8,1011.4,293.8,4.0,6.2,316.0,0.21,2.8,8.2,"11:43:00",1
"21/02/08","12:00",0.0,7.4,73.5,1011.4,295.3,3.5,5.7,325.5,0.24,3.0,8.2,"11:51:04",1
"21/02/08","12:10",0.0,7.2,71.7,1011.2,292.8,3.7,6.4,323.5,0.19,2.5,8.3,"12:07:58",1
"21/02/08","12:20",0.0,7.6,69.3,1010.9,321.6,3.1,6.4,336.6,0.20,2.4,8.5,"12:17:52",1
"21/02/08","12:30",0.0,7.8,67.8,1010.7,309.3,4.0,6.2,336.5,0.23,2.3,8.5,"12:23:44",1
"21/02/08","12:40",0.0,7.8,66.3,1010.9,331.4,4.7,7.2,318.3,0.37,2.0,8.7,"12:38:50",1
"21/02/08","12:50",0.0,7.4,65.2,1010.7,324.9,4.7,7.2,338.4,0.22,1.3,8.7,"12:46:52",1
"21/02/08","13:00",0.0,8.2,65.9,1010.7,330.4,4.2,7.4,334.2,0.48,2.3,9.0,"12:59:38",1
"21/02/08","13:10",0.0,8.8,62.9,1010.4,323.9,4.0,7.8,327.6,0.60,2.2,9.1,"13:09:04",1
"21/02/08","13:20",0.0,9.5,62.0,1010.0,315.7,3.0,6.0,314.0,0.55,2.6,9.3,"13:10:24",1
"21/02/08","13:30",0.0,9.2,60.1,1010.0,337.8,3.4,6.4,343.7,0.56,1.9,9.6,"13:22:40",1
"21/02/08","13:40",0.0,9.4,60.9,1010.2,334.8,3.6,6.8,340.7,0.57,2.3,9.8,"13:33:44",1
"21/02/08","13:50",0.0,8.9,60.8,1010.2,327.8,3.1,7.1,322.3,0.59,1.8,9.9,"13:48:16",1
"21/02/08","14:00",0.0,9.1,60.2,1010.2,327.4,2.7,5.6,329.5,0.42,1.8,10.3,"13:59:28",1
"21/02/08","14:10",0.0,9.0,59.7,1010.0,293.0,3.6,5.5,317.2,0.47,1.6,10.2,"14:03:20",1
"21/02/08","14:20",0.0,8.7,59.9,1010.2,277.5,3.7,6.6,271.1,0.44,1.4,10.2,"14:17:12",1
"21/02/08","14:30",0.0,8.8,60.5,1010.0,324.0,3.7,7.4,325.0,0.46,1.6,10.5,"14:26:56",1
"21/02/08","14:40",0.0,8.0,60.7,1009.7,340.9,3.5,10.6,341.9,0.28,0.9,10.5,"14:38:40",1
"21/02/08","14:50",0.0,7.2,63.7,1010.2,337.3,4.1,7.9,328.3,0.09,0.8,10.3,"14:49:44",1
"21/02/08","15:00",0.0,6.8,66.0,1010.0,335.8,4.2,6.5,330.2,0.08,0.9,10.3,"14:53:58",1
"21/02/08","15:10",0.0,6.5,67.2,1009.7,337.3,3.9,7.7,317.1,0.08,0.9,10.3,"15:05:52",1
"21/02/08","15:20",0.0,6.6,67.5,1009.7,346.6,2.8,5.4,346.3,0.11,1.1,10.1,"15:18:26",1
"21/02/08","15:30",0.0,6.3,67.2,1010.2,346.6,4.0,7.2,350.8,0.09,0.7,10.0,"15:28:18",1
"21/02/08","15:40",0.0,6.1,67.1,1010.0,346.9,3.9,8.5,338.0,0.07,0.5,9.8,"15:34:12",1
"21/02/08","15:50",0.0,6.1,67.5,1010.0,342.5,3.5,7.8,338.7,0.08,0.6,9.7,"15:49:18",1
"21/02/08","16:00",0.0,5.8,68.6,1010.0,342.8,3.9,8.7,342.9,0.04,0.5,9.3,"15:53:00",1
"21/02/08","16:10",0.0,5.4,70.0,1010.2,340.6,4.2,8.0,327.7,0.02,0.4,9.3,"16:07:00",1
"21/02/08","16:20",0.0,5.0,71.9,1010.2,339.2,4.7,8.7,338.0,0.03,0.4,9.2,"16:13:44",1
"21/02/08","16:30",0.0,4.8,73.1,1010.4,331.9,4.1,6.4,305.2,0.02,0.4,9.2,"16:28:32",1
"21/02/08","16:40",0.0,4.8,73.7,1010.2,320.5,4.1,6.7,325.2,0.02,0.5,9.0,"16:38:08",1
"21/02/08","16:50",0.0,4.8,73.8,1010.4,331.3,3.5,5.8,311.4,0.01,0.6,8.8,"16:41:44",1
"21/02/08","17:00",0.0,4.9,73.9,1010.4,325.1,3.7,5.5,324.9,0.00,0.7,8.8,"16:51:36",1
"21/02/08","17:10",0.0,4.9,73.6,1010.2,316.6,3.6,5.7,330.8,0.00,0.6,8.5,"17:09:04",1
"21/02/08","17:20",0.0,4.8,73.3,1010.9,317.6,4.6,7.3,305.4,0.00,0.5,8.6,"17:19:38",1
"21/02/08","17:30",0.0,4.7,73.1,1010.7,313.8,5.9,11.0,345.0,0.00,0.3,8.4,"17:27:28",1
"21/02/08","17:40",0.0,4.6,73.1,1010.9,310.6,5.0,8.2,336.8,0.00,0.2,8.4,"17:33:28",1
"21/02/08","17:50",0.0,4.4,73.6,1011.4,323.2,4.9,7.5,323.4,0.00,0.1,8.2,"17:49:44",1
"21/02/08","18:00",0.0,4.0,74.3,1010.9,320.1,4.0,6.7,339.8,0.00,-0.1,8.0,"17:52:16",1
"21/02/08","18:10",0.0,3.9,74.7,1010.9,315.9,3.9,5.9,333.0,0.00,-0.1,8.1,"18:01:52",1
"21/02/08","18:20",0.0,3.8,74.9,1011.4,316.6,3.5,8.2,327.5,0.00,-0.2,7.8,"18:18:16",1
"21/02/08","18:30",0.0,3.7,75.2,1011.6,299.5,2.8,5.9,336.3,0.00,-0.2,7.8,"18:25:36",1
"21/02/08","18:40",0.0,3.7,75.6,1011.2,300.1,3.1,5.5,327.0,0.00,-0.2,7.7,"18:38:40",1
"21/02/08","18:50",0.0,3.4,76.2,1011.9,296.9,3.2,5.9,314.1,0.00,-0.3,7.5,"18:42:56",1
"21/02/08","19:00",0.0,3.5,76.6,1011.6,309.2,4.0,8.9,309.5,0.00,-0.2,7.5,"18:56:16",1
"21/02/08","19:10",0.0,3.4,77.0,1011.9,304.9,3.4,5.1,326.3,0.00,-0.2,7.4,"19:09:52",1
"21/02/08","19:20",0.0,3.6,77.3,1012.1,310.0,4.6,7.5,319.9,0.00,0.0,7.2,"19:14:24",1
"21/02/08","19:30",0.0,3.7,77.5,1012.1,321.9,5.1,8.2,331.0,0.00,0.2,7.2,"19:22:40",1
"21/02/08","19:40",0.0,3.7,77.9,1012.3,318.1,4.1,5.9,314.1,0.00,0.2,7.2,"19:32:16",1
"21/02/08","19:50",0.0,3.6,78.6,1012.1,306.3,3.1,5.2,315.7,0.00,0.3,7.0,"19:41:28",1
"21/02/08","20:00",0.0,3.3,79.6,1012.3,310.1,3.9,5.7,328.9,0.00,0.2,6.9,"19:54:16",1
"21/02/08","20:10",0.0,3.1,80.8,1012.6,300.9,3.9,5.6,311.9,0.00,0.2,6.9,"20:09:52",1
"21/02/08","20:20",0.0,2.8,82.4,1012.3,302.2,4.7,6.7,341.1,0.00,0.1,6.9,"20:15:44",1
"21/02/08","20:30",0.0,2.8,84.1,1011.9,300.2,4.2,6.8,325.9,0.00,0.4,7.0,"20:25:00",1
"21/02/08","20:40",0.0,2.6,85.6,1012.1,322.9,4.9,8.1,329.7,0.00,0.5,6.7,"20:37:08",1
"21/02/08","20:50",0.0,2.5,86.8,1012.6,321.5,4.6,6.8,332.0,0.00,0.6,6.9,"20:46:34",1
"21/02/08","21:00",0.0,2.6,87.6,1012.6,309.2,4.7,6.0,336.6,0.00,0.8,6.6,"20:51:12",1
"21/02/08","21:10",0.0,2.4,88.5,1013.0,311.6,4.6,6.5,319.1,0.00,0.7,6.5,"21:02:14",1
"21/02/08","21:20",0.2,2.3,89.3,1013.0,306.6,4.1,6.5,323.9,0.00,0.8,6.5,"21:17:30",1
"21/02/08","21:30",0.0,2.2,90.0,1013.0,318.9,3.7,5.5,316.4,0.00,0.8,6.5,"21:27:22",1
"21/02/08","21:40",0.0,2.3,90.4,1013.0,317.1,4.2,5.9,309.1,0.00,0.9,6.4,"21:33:30",1
"21/02/08","21:50",0.0,2.3,90.8,1013.0,323.3,5.0,6.7,323.4,0.00,1.0,6.5,"21:41:52",1
"21/02/08","22:00",0.0,2.2,91.3,1013.5,323.2,4.7,7.0,314.6,0.00,1.0,6.5,"21:57:36",1
"21/02/08","22:10",0.0,2.3,91.6,1013.5,321.5,4.7,7.1,330.6,0.00,1.1,6.3,"22:09:10",1
"21/02/08","22:20",0.0,2.2,91.9,1013.5,323.3,4.4,6.6,316.4,0.00,1.1,6.4,"22:13:04",1
"21/02/08","22:30",0.0,2.2,92.2,1013.5,322.3,4.7,7.7,340.4,0.00,1.1,6.2,"22:26:56",1
"21/02/08","22:40",0.0,2.0,92.4,1013.8,315.8,4.2,6.5,339.7,0.00,0.9,6.2,"22:35:22",1
"21/02/08","22:50",0.0,1.9,92.6,1013.5,308.4,4.5,6.3,319.5,0.00,0.9,6.1,"22:45:48",1
"21/02/08","23:00",0.0,1.9,92.7,1014.0,311.6,4.6,7.9,330.9,0.00,0.9,6.2,"22:56:44",1
"21/02/08","23:10",0.0,2.0,92.7,1013.8,311.0,5.0,7.2,339.9,0.00,1.0,6.2,"23:05:24",1
"21/02/08","23:20",0.0,1.9,92.6,1014.0,313.2,5.4,8.2,323.2,0.00,0.9,6.1,"23:16:42",1
"21/02/08","23:30",0.0,2.0,92.6,1014.5,308.8,5.2,8.1,317.9,0.00,1.0,6.1,"23:29:32",1
"21/02/08","23:40",0.0,1.9,92.7,1014.2,313.2,5.1,7.3,341.4,0.00,0.9,5.9,"23:37:28",1
"21/02/08","23:50",0.0,1.6,92.8,1014.0,310.0,5.0,7.0,329.1,0.00,0.6,6.1,"23:47:06",1
"21/02/08","24:00",0.0,1.6,92.8,1014.7,307.0,4.9,6.8,316.9,0.00,0.6,5.9,"23:56:50",1
